Regional Weather Roundup
Issued by NWS

Home | Current Version | Previous Version | Graphics & Text | Print | Product List | Glossary On
Versions: 1 2 3 4 5 6 7 8 9 10 11 12 13 14 15 16 17 18 19 20 21 22 23 24 25 26 27 28 29 30 31 32 33 34 35 36 37 38 39 40 41 42 43 44 45 46 47 48 49 50
000
ASUS43 KMKX 241600
RWRWI

WISCONSIN REGIONAL WEATHER ROUNDUP
NATIONAL WEATHER SERVICE MILWAUKEE/SULLIVAN WI
1100 AM CDT TUE MAY 24 2016

NOTE: "FAIR" INDICATES FEW OR NO CLOUDS BELOW 12,000 FEET WITH NO
SIGNIFICANT WEATHER AND/OR OBSTRUCTIONS TO VISIBILITY.

WIZ001-002-006>008-014>016-023>028-241700-
NORTHWEST WISCONSIN

CITY           SKY/WX    TMP DP  RH WIND       PRES   REMARKS
SUPERIOR ARPT  PTSUNNY   64  61  90 E7        29.85F
ASHLAND        LGT RAIN  62  62 100 N10       29.88R FOG
HAYWARD        CLOUDY    68  61  78 CALM      29.87R
SIREN          CLOUDY    65  62  89 W5        29.87R
CUMBERLAND     CLOUDY    66  61  82 W8        29.88R
RICE LAKE      CLOUDY    68  60  75 S3        29.89S
CHETEK         CLOUDY    69  64  83 SW3       29.88S
LADYSMITH      CLOUDY    69  63  82 SW7       29.90S
EAU CLAIRE     NOT AVBL
MENOMONIE      CLOUDY    71  70  99 SW7       29.88R
NEW RICHMOND   CLOUDY    74  61  62 NW9       29.87R
OSCEOLA        CLOUDY    72  64  76 NW5       29.90R
$$

WIZ003>005-009-010-017-018-241700-
NORTH CENTRAL WISCONSIN

CITY           SKY/WX    TMP DP  RH WIND       PRES   REMARKS
MANITOWISH WTR CLOUDY    67  64  90 SW8       29.89S
ARBOR VITAE    CLOUDY    69  63  82 SW8       29.91R
WOODRUFF       CLOUDY    69  63  82 SW8       29.91R
RHINELANDER    LGT RAIN  68  61  78 SW7       29.92R
EAGLE RIVER    LGT RAIN  66  60  79 SW3       29.90S
LAND O LAKES   PTSUNNY   69  62  80 SW6       29.91S
PHILLIPS       CLOUDY    68  63  83 S6        29.89S
TOMAHAWK       CLOUDY    66  61  83 S3        29.92R
MEDFORD        CLOUDY    66  61  84 SE5       29.90F
MERRILL        LGT RAIN  68  63  83 S3        29.92S
$$

WIZ029-030-035-036-043>047-241700-
CENTRAL WISCONSIN

CITY           SKY/WX    TMP DP  RH WIND       PRES   REMARKS
WAUSAU         CLOUDY    72  58  61 S7        29.89S
MOSINEE        MOSUNNY   68  59  73 S6        29.92S
MARSHFIELD     PTSUNNY   71  58  63 S7        29.90S
STEVENS POINT  CLOUDY    71  55  55 S6        29.91S
WAUPACA        PTSUNNY   76  55  48 S8        29.92S
WAUTOMA        PTSUNNY   75  58  55 S6        29.92F
WISC RAPIDS    CLOUDY    71  56  58 SW7       29.93R
CAMP DOUGLAS   NOT AVBL
$$

WIZ011>013-019>022-031-037>040-048>050-241700-
NORTHEAST WISCONSIN

CITY           SKY/WX    TMP DP  RH WIND       PRES   REMARKS
ANTIGO         MOSUNNY   70  61  72 S8        29.93R
SHAWANO        CLOUDY    75  53  47 S5        29.92R
OCONTO         CLOUDY    76  56  49 SE9       29.90S
STURGEON BAY   NOT AVBL
GREEN BAY      PTSUNNY   78  54  43 SW10      29.92R
MANITOWOC      NOT AVBL
APPLETON       PTSUNNY   73  54  49 VRB6      29.92R
CLINTONVILLE   MOSUNNY   73  50  43 S6        29.91S
OSHKOSH        PTSUNNY   77  57  50 S7        29.91F
$$

WIZ032>034-041-042-053>061-241700-
SOUTHWEST WISCONSIN

CITY           SKY/WX    TMP DP  RH WIND       PRES   REMARKS
LA CROSSE      PTSUNNY   74  59  59 SW9       29.91R
SPARTA         CLOUDY    73  60  64 SW6       29.92R
VIROQUA        MOSUNNY   72  58  62 SW6       29.94R
BOSCOBEL       CLOUDY    76  59  55 S7        29.93R
PRAIRIE DU CHI CLOUDY    72  59  62 CALM      29.92S
PLATTEVILLE    PTSUNNY   71  59  67 S9        29.96R
$$

WIZ056-057-062-063-064-067-068-241700-
SOUTH CENTRAL WISCONSIN

CITY           SKY/WX    TMP DP  RH WIND       PRES   REMARKS
REEDSBURG      PTSUNNY   72  58  61 SW8       29.92S
BARABOO/DELLS  CLOUDY    72  54  54 SW9       29.94R
LONE ROCK      NOT AVBL
MINERAL POINT  CLOUDY    73  55  53 SW8       29.96R
MADISON        PTSUNNY   74  57  55 S12       29.93F
MIDDLETON      PTSUNNY   76  57  50 SW10      29.94S
WATERTOWN      SUNNY     77  57  50 SE7       29.93F
MONROE         MOSUNNY   73  55  53 S9        29.95F
JANESVILLE     SUNNY     81  57  44 S14       29.95S HX  81
$$

WIZ051-052-058>065-066-070>072-241700-
SOUTHEAST WISCONSIN

CITY           SKY/WX    TMP DP  RH WIND       PRES   REMARKS
MILWAUKEE      MOSUNNY   79  55  43 S14       29.96S
WAUKESHA       MOSUNNY   75  54  46 S9        29.97S
MILWAUKEE/TIMM PTSUNNY   79  50  36 SW14      29.97R
RACINE         MOSUNNY   80  52  37 SW12      29.98S HX  80
BURLINGTON     SUNNY     77  53  41 SW9       29.97S
KENOSHA        SUNNY     80  56  43 SW13      29.97F HX  80
FOND DU LAC    MOSUNNY   80  57  45 S12       29.92F HX  80
SHEBOYGAN      SUNNY     79  55  43 S14       29.94R
WEST BEND      MOSUNNY   79  54  41 SW7       29.95S
JUNEAU         SUNNY     76  57  52 S9        29.95S
$$

LSZ147-162-241700-
LAKE SUPERIOR

STATION/POSITION TIME  TEMP    WIND        PRES    WAVE
                       AIR SEA DIR/SP/G            HT/PER
                 (UTC) (F)     (DEG/KT/KT) (MB)    (FT/S)
W MID LAKE BUOY  1450   47 38  130/  4/  6 1011.9R   1
DEVILS ISLAND    1500   56      10/  7/  8 1011.5F
PORT WING        1420           10/  5/ 13 1011.5
SAXON HARBOR     1540   54      60/  3/ 15 1011.2R
$$

LMZ867-665-643>646-241700-
LAKE MICHIGAN

STATION/POSITION TIME  TEMP    WIND        PRES    WAVE
                       AIR SEA DIR/SP/G            HT/PER
                 (UTC) (F)     (DEG/KT/KT) (MB)    (FT/S)
CHAMBERS ISLAND  1500   70     190/  4/  7 1012.9S
N MID LAKE BUOY  1450   47 44  190/ 10/ 12 1013.1F   2/ 4
NORTHPORT PIER   1500   58     150/  7/  8 1012.5S
SISTER BAY       1519           10/  5/  6   N/A
ALGOMA LAKESHORE 1516          200/  6/  7   N/A
KEWAUNEE LAKESHO 1500   53     160/ 10/ 11 1012.5S
SHEBOYGAN LAKESH 1500   68     170/ 13/ 13 1013.7F
PORT WASHINGTON  1500   65     180/  8/  9 1014.9
S MID LAKE BUOY  1450   51 47  180/ 10/ 10 1015.5F   1
KENOSHA   LAKESH 1500   61     170/ 13/ 15 1014.6S
$$

TC  - TEMPERATURE IN CELSIUS
VSB - VISIBILITY IN STATUTE MILES
WCI - WIND CHILL INDEX
HX  - HEAT INDEX




USA.gov is the U.S. government's official web portal to all federal, state and local government web resources and services.